• In Denmark
  • List of Countries
  • For 7 days
  • Water Temperature
  • Satellite Maps
  • Weather Map
  • Weather Widgets
  • user-avatar
    Login

    Hourly Weather Perth

    Today, 22 September, Saturday

    Time Temperature Precipitation Wind Pressure Humidity
    00:00 +14°C° 0 mm 3 mps 764 mmHg 71%
    01:00 +14°C° 0 mm 3 mps 764 mmHg 74%
    02:00 +14°C° 0 mm 2 mps 763 mmHg 78%
    03:00 +13°C° 0 mm 2 mps 763 mmHg 79%
    04:00 +13°C° 0 mm 2 mps 763 mmHg 79%
    05:00 +13°C° 0 mm 2 mps 763 mmHg 80%
    06:00 +14°C° 0 mm 2 mps 763 mmHg 75%
    07:00 +16°C° 0 mm 2 mps 763 mmHg 69%
    08:00 +17°C° 0 mm 2 mps 763 mmHg 64%
    09:00 +19°C° 0 mm 2 mps 763 mmHg 56%
    10:00 +23°C° 0 mm 2 mps 763 mmHg 49%
    11:00 +26°C° 0 mm 1 mps 763 mmHg 42%
    12:00 +27°C° 0 mm 2 mps 762 mmHg 40%
    13:00 +28°C° 0 mm 2 mps 761 mmHg 37%
    14:00 +29°C° 0 mm 2 mps 761 mmHg 30%
    15:00 +28°C° 0 mm 3 mps 761 mmHg 36%
    16:00 +26°C° 0 mm 3 mps 761 mmHg 41%
    17:00 +25°C° 0 mm 4 mps 762 mmHg 47%
    18:00 +22°C° 0 mm 4 mps 762 mmHg 52%
    19:00 +19°C° 0 mm 4 mps 762 mmHg 57%
    20:00 +17°C° 0 mm 4 mps 763 mmHg 63%
    21:00 +17°C° 0 mm 4 mps 763 mmHg 62%
    22:00 +15°C° 0 mm 4 mps 763 mmHg 61%
    23:00 +14°C° 0 mm 3 mps 763 mmHg 60%

    Tomorrow, 23 September, Sunday

    Time Temperature Precipitation Wind Pressure Humidity
    00:00 +14°C° 0 mm 3 mps 763 mmHg 59%
    01:00 +14°C° 0 mm 3 mps 763 mmHg 59%
    02:00 +13°C° 0 mm 3 mps 763 mmHg 58%
    03:00 +14°C° 0 mm 2 mps 763 mmHg 64%
    04:00 +14°C° 0 mm 2 mps 763 mmHg 70%
    05:00 +14°C° 0 mm 1 mps 763 mmHg 76%
    06:00 +15°C° 0 mm 1 mps 763 mmHg 73%
    07:00 +18°C° 0 mm 1 mps 763 mmHg 69%
    08:00 +19°C° 0 mm 1 mps 763 mmHg 66%
    09:00 +22°C° 0 mm 1 mps 763 mmHg 59%
    10:00 +24°C° 0 mm 1 mps 763 mmHg 52%
    11:00 +27°C° 0 mm 1 mps 763 mmHg 44%
    12:00 +27°C° 0 mm 1 mps 763 mmHg 43%
    13:00 +28°C° 0 mm 2 mps 762 mmHg 42%
    14:00 +28°C° 0 mm 3 mps 762 mmHg 40%
    15:00 +27°C° 0 mm 3 mps 762 mmHg 46%
    16:00 +26°C° 0 mm 3 mps 762 mmHg 52%
    17:00 +24°C° 0 mm 3 mps 762 mmHg 58%
    18:00 +21°C° 0 mm 3 mps 763 mmHg 64%
    19:00 +19°C° 0 mm 3 mps 763 mmHg 70%
    20:00 +17°C° 0 mm 3 mps 763 mmHg 76%
    21:00 +17°C° 0 mm 2 mps 763 mmHg 78%
    22:00 +16°C° 0 mm 2 mps 764 mmHg 79%
    23:00 +16°C° 0 mm 2 mps 764 mmHg 80%

    Day after tomorrow, 24 September, Monday

    Time Temperature Precipitation Wind Pressure Humidity
    00:00 +15°C° 0 mm 1 mps 764 mmHg 82%
    01:00 +15°C° 0 mm 1 mps 763 mmHg 83%
    02:00 +15°C° 0 mm 1 mps 763 mmHg 84%
    03:00 +14°C° 0 mm 1 mps 763 mmHg 86%
    04:00 +14°C° 0 mm 1 mps 763 mmHg 87%
    05:00 +14°C° 0 mm 1 mps 763 mmHg 88%
    06:00 +15°C° 0 mm 1 mps 763 mmHg 84%
    07:00 +16°C° 0 mm 1 mps 763 mmHg 80%
    08:00 +19°C° 0 mm 1 mps 763 mmHg 76%
    09:00 +19°C° 0 mm 2 mps 763 mmHg 69%
    10:00 +21°C° 0 mm 2 mps 763 mmHg 63%
    11:00 +24°C° 0 mm 3 mps 763 mmHg 57%
    12:00 +24°C° 0 mm 3 mps 763 mmHg 56%
    13:00 +25°C° 0 mm 4 mps 762 mmHg 55%
    14:00 +25°C° 0 mm 4 mps 762 mmHg 55%
    15:00 +23°C° 0 mm 4 mps 762 mmHg 57%
    16:00 +22°C° 0 mm 4 mps 762 mmHg 60%
    17:00 +21°C° 0 mm 4 mps 762 mmHg 63%
    18:00 +19°C° 0 mm 4 mps 763 mmHg 70%
    19:00 +17°C° 0 mm 3 mps 763 mmHg 77%
    20:00 +16°C° 0 mm 3 mps 764 mmHg 84%
    21:00 +14°C° 0 mm 3 mps 764 mmHg 85%
    22:00 +14°C° 0 mm 3 mps 764 mmHg 87%
    23:00 +14°C° 0 mm 2 mps 764 mmHg 88%

    25 September, Tuesday

    Time Temperature Precipitation Wind Pressure Humidity
    00:00 +14°C° 0 mm 2 mps 764 mmHg 88%
    01:00 +14°C° 0 mm 2 mps 764 mmHg 88%
    02:00 +13°C° 0 mm 2 mps 764 mmHg 88%
    03:00 +13°C° 0 mm 2 mps 764 mmHg 88%
    04:00 +13°C° 0 mm 2 mps 764 mmHg 88%
    05:00 +13°C° 0 mm 2 mps 764 mmHg 88%
    06:00 +14°C° 0 mm 2 mps 764 mmHg 84%
    07:00 +16°C° 0 mm 2 mps 765 mmHg 79%
    08:00 +17°C° 0 mm 2 mps 765 mmHg 75%
    09:00 +19°C° 0 mm 2 mps 765 mmHg 70%
    10:00 +20°C° 0 mm 3 mps 765 mmHg 65%
    11:00 +22°C° 0 mm 4 mps 765 mmHg 60%
    12:00 +22°C° 0 mm 4 mps 764 mmHg 58%
    13:00 +22°C° 0 mm 4 mps 764 mmHg 56%
    14:00 +23°C° 0 mm 4 mps 763 mmHg 54%
    15:00 +22°C° 0 mm 4 mps 763 mmHg 56%
    16:00 +21°C° 0 mm 4 mps 763 mmHg 58%
    17:00 +20°C° 0 mm 4 mps 763 mmHg 59%
    18:00 +18°C° 0 mm 4 mps 764 mmHg 67%
    19:00 +15°C° 0 mm 4 mps 765 mmHg 74%
    20:00 +13°C° 0 mm 3 mps 765 mmHg 82%
    21:00 +13°C° 0 mm 3 mps 765 mmHg 84%
    22:00 +12°C° 0 mm 3 mps 765 mmHg 86%
    23:00 +12°C° 0 mm 3 mps 765 mmHg 89%

    26 September, Wednesday

    Time Temperature Precipitation Wind Pressure Humidity
    00:00 +11°C° 0 mm 3 mps 765 mmHg 89%
    01:00 +11°C° 0 mm 3 mps 765 mmHg 89%
    02:00 +11°C° 0 mm 3 mps 764 mmHg 89%
    03:00 +11°C° 0 mm 3 mps 764 mmHg 90%
    04:00 +10°C° 0 mm 3 mps 764 mmHg 90%
    05:00 +10°C° 0 mm 3 mps 764 mmHg 90%
    06:00 +11°C° 0 mm 3 mps 765 mmHg 86%
    07:00 +12°C° 0 mm 3 mps 765 mmHg 83%
    08:00 +13°C° 0 mm 3 mps 765 mmHg 80%
    09:00 +16°C° 0 mm 3 mps 765 mmHg 72%
    10:00 +19°C° 0 mm 2 mps 765 mmHg 64%
    11:00 +21°C° 0 mm 2 mps 765 mmHg 56%
    12:00 +20°C° 0 mm 3 mps 764 mmHg 57%
    13:00 +20°C° 0 mm 4 mps 764 mmHg 59%
    14:00 +19°C° 0 mm 5 mps 763 mmHg 61%
    15:00 +19°C° 0 mm 5 mps 763 mmHg 61%
    16:00 +19°C° 0 mm 6 mps 763 mmHg 62%
    17:00 +19°C° 0 mm 6 mps 763 mmHg 63%
    18:00 +16°C° 0 mm 6 mps 764 mmHg 67%
    19:00 +15°C° 0 mm 6 mps 765 mmHg 72%
    20:00 +13°C° 0 mm 6 mps 766 mmHg 76%
    21:00 +13°C° 0 mm 6 mps 766 mmHg 77%
    22:00 +11°C° 0 mm 6 mps 766 mmHg 77%
    23:00 +11°C° 0 mm 6 mps 766 mmHg 78%

    27 September, Thursday

    Time Temperature Precipitation Wind Pressure Humidity
    00:00 +10°C° 0 mm 6 mps 766 mmHg 79%
    01:00 +9°C° 0 mm 5 mps 766 mmHg 81%
    02:00 +9°C° 0 mm 5 mps 766 mmHg 82%
    03:00 +9°C° 0 mm 5 mps 766 mmHg 84%
    04:00 +8°C° 0 mm 5 mps 767 mmHg 86%
    05:00 +8°C° 0 mm 5 mps 767 mmHg 87%
    06:00 +9°C° 0 mm 5 mps 767 mmHg 82%
    07:00 +10°C° 0 mm 6 mps 768 mmHg 76%
    08:00 +11°C° 0 mm 6 mps 768 mmHg 71%
    09:00 +14°C° 0 mm 6 mps 768 mmHg 64%
    10:00 +16°C° 0 mm 5 mps 768 mmHg 57%
    11:00 +19°C° 0 mm 5 mps 767 mmHg 49%
    12:00 +20°C° 0 mm 5 mps 767 mmHg 47%
    13:00 +21°C° 0 mm 5 mps 766 mmHg 44%
    14:00 +22°C° 0 mm 5 mps 766 mmHg 42%
    15:00 +21°C° 0 mm 5 mps 766 mmHg 45%
    16:00 +21°C° 0 mm 5 mps 766 mmHg 48%
    17:00 +21°C° 0 mm 5 mps 766 mmHg 50%
    18:00 +19°C° 0 mm 5 mps 766 mmHg 54%
    19:00 +17°C° 0 mm 6 mps 767 mmHg 58%
    20:00 +15°C° 0 mm 6 mps 767 mmHg 62%
    21:00 +14°C° 0 mm 6 mps 767 mmHg 62%
    22:00 +14°C° 0 mm 7 mps 767 mmHg 62%
    23:00 +12°C° 0 mm 7 mps 767 mmHg 62%
    Show more